This is the latest recevied weather packets stored in our database for station/object PU5FJO-13. If no packets are shown the sender has not sent any weather packets the latest 10 day(s).
| Time | Temp. | Humidity | Pressure | Rain* | Wind** | Luminosity | Snow |
|---|---|---|---|---|---|---|---|
| 1777829172 | 21.11° C | 45% | 1023 hPa | - | - | - | - |
| 1777828571 | 20.56° C | 43% | 1023 hPa | - | - | - | - |
| 1777827972 | 21.11° C | 44% | 1023.2 hPa | - | - | - | - |
| 1777827372 | 20.56° C | 44% | 1023.2 hPa | - | - | - | - |
| 1777826772 | 20.56° C | 43% | 1023.3 hPa | - | - | - | - |
| 1777826172 | 20.56° C | 44% | 1023.4 hPa | - | - | - | - |
| 1777825571 | 20.56° C | 46% | 1023.7 hPa | - | - | - | - |
| 1777824972 | 20.56° C | 46% | 1023.8 hPa | - | - | - | - |
| 1777824371 | 20.56° C | 43% | 1024 hPa | - | - | - | - |
| 1777823772 | 20° C | 46% | 1024.1 hPa | - | - | - | - |
| 1777823172 | 20° C | 46% | 1024.1 hPa | - | - | - | - |
| 1777822572 | 20° C | 49% | 1024.4 hPa | - | - | - | - |
| 1777821971 | 19.44° C | 48% | 1024.6 hPa | - | - | - | - |
| 1777821373 | 20° C | 49% | 1024.7 hPa | - | - | - | - |
| 1777820772 | 20° C | 49% | 1024.8 hPa | - | - | - | - |
| 1777820171 | 19.44° C | 49% | 1025 hPa | - | - | - | - |
| 1777819571 | 18.89° C | 49% | 1025.1 hPa | - | - | - | - |
| 1777818971 | 19.44° C | 49% | 1025.4 hPa | - | - | - | - |
| 1777818372 | 18.89° C | 51% | 1025.6 hPa | - | - | - | - |
| 1777817771 | 18.89° C | 50% | 1025.7 hPa | - | - | - | - |
| 1777817171 | 18.89° C | 51% | 1025.7 hPa | - | - | - | - |
| 1777816572 | 18.89° C | 50% | 1025.6 hPa | - | - | - | - |
| 1777815971 | 18.33° C | 52% | 1025.8 hPa | - | - | - | - |
| 1777815371 | 18.33° C | 53% | 1025.9 hPa | - | - | - | - |
| 1777814771 | 18.33° C | 53% | 1026 hPa | - | - | - | - |
* Rain since midnight (hover to see other rain measurements)
** Current wind speed in m/s (hover to see current wind gust speed)